This is the latest recevied weather packets stored in our database for station/object AJ1L. If no packets are shown the sender has not sent any weather packets the latest 10 day(s).
| Time | Temp. | Humidity | Pressure | Rain* | Wind** | Luminosity | Snow |
|---|---|---|---|---|---|---|---|
| 1777597641 | 11.11° C | 88% | 1006.3 hPa | 0 mm | - | - | - |
| 1777596641 | 11.67° C | 87% | 1006.1 hPa | 0 mm | - | - | - |
| 1777595640 | 11.67° C | 86% | 1006 hPa | 0 mm | - | - | - |
| 1777594641 | 11.67° C | 86% | 1006 hPa | 0 mm | - | - | - |
| 1777593641 | 11.67° C | 85% | 1005.9 hPa | 0 mm | - | - | - |
| 1777592641 | 11.67° C | 85% | 1005.8 hPa | 0 mm | - | - | - |
| 1777591641 | 12.22° C | 85% | 1005.7 hPa | 0 mm | - | - | - |
| 1777590641 | 12.22° C | 85% | 1005.7 hPa | 0 mm | - | - | - |
| 1777589640 | 12.22° C | 84% | 1005.5 hPa | 0 mm | - | - | - |
| 1777588640 | 12.22° C | 84% | 1005.5 hPa | 0 mm | - | - | - |
| 1777587641 | 12.22° C | 85% | 1005.2 hPa | 0 mm | - | - | - |
| 1777586640 | 12.22° C | 85% | 1005.1 hPa | 0 mm | - | - | - |
| 1777585640 | 12.22° C | 84% | 1005 hPa | 0 mm | - | - | - |
| 1777584641 | 12.22° C | 84% | 1004.9 hPa | 0 mm | - | - | - |
| 1777583640 | 12.22° C | 84% | 1005 hPa | 0.25 mm | - | - | - |
| 1777582640 | 12.22° C | 83% | 1005.1 hPa | 0.25 mm | - | - | - |
| 1777581641 | 12.22° C | 83% | 1004.9 hPa | 0.25 mm | - | - | - |
| 1777580640 | 12.78° C | 81% | 1005 hPa | 0 mm | - | - | - |
| 1777579641 | 12.78° C | 83% | 1004.9 hPa | 0 mm | - | - | - |
| 1777578641 | 12.22° C | 83% | 1005.1 hPa | 0 mm | - | - | - |
| 1777577640 | 12.22° C | 84% | 1005.3 hPa | 0 mm | - | - | - |
| 1777576640 | 12.22° C | 86% | 1005.4 hPa | 0 mm | - | - | - |
| 1777575640 | 11.67° C | 86% | 1005.5 hPa | 0 mm | - | - | - |
| 1777574640 | 11.11° C | 89% | 1005.5 hPa | 0 mm | - | - | - |
| 1777573640 | 11.11° C | 91% | 1005.8 hPa | 0 mm | - | - | - |
* Rain latest hour (hover to see other rain measurements)
** Current wind speed in m/s (hover to see current wind gust speed)